Location: Czekanka
(50.4925°N, 19.2643°E)
Time: 20:37:30
(UTC+00:00)

BREEZE-M DEB (TANK) - Visible Passes

Search period start: 13 September 2024 00:00
Search period end: 23 September 2024 00:00
Orbit: 317 x 14880 km, 49.5° (Epoch: 12 September)

Date Brightness Start Highest point End Pass type
(mag) Time Alt. Az. Time Alt. Az. Time Alt. Az.
13 Sep 10.4 01:41:18 10° E 02:23:03 15° E 02:51:23 10° ENE visible
15 Sep 9.2 02:56:30 10° SSE 04:41:27 44° ESE 05:27:17 10° ENE visible
16 Sep 9.7 02:00:38 10° SE 03:26:48 31° E 04:10:56 10° ENE visible
17 Sep 10.2 01:18:41 10° ESE 02:15:10 19° E 02:50:25 10° ENE visible
18 Sep 8.7 03:52:01 10° S 05:53:03 60° SE 06:36:49 10° ENE visible
19 Sep 9.2 02:44:53 10° SSE 04:34:17 48° ESE 05:22:03 10° ENE visible
20 Sep 9.7 01:45:31 10° SE 03:18:36 35° E 04:05:49 10° ENE visible
21 Sep 10.0 00:58:17 10° ESE 02:06:03 23° E 02:46:30 10° ENE visible
22 Sep 10.3 00:34:53 10° E 00:56:30 12° ENE 01:14:16 10° ENE visible
22 Sep 8.8 03:42:08 10° S 05:45:44 64° SE 06:30:24 10° ENE visible
